H1 CPF 2 NER 2025 10 31 9 304 01 glonass140 H2 1903001 9140 44299 2025 10 31 0 0 0 2025 11 3 23 45 0 900 1 1 0 0 0 1 H9 10 0 60979 0.00000 0 -23590452.414 9402950.810 -2320625.752 10 0 60979 900.00000 0 -23627733.731 9559939.199 884077.986 10 0 60979 1800.00000 0 -23296968.521 9552707.920 4071601.215 10 0 60979 2700.00000 0 -22627945.115 9335006.549 7180012.831 10 0 60979 3600.00000 0 -21661144.974 8868394.020 10148961.210 10 0 60979 4500.00000 0 -20445969.877 8124103.881 12920845.909 10 0 60979 5400.00000 0 -19038616.462 7084505.749 15441932.128 10 0 60979 6300.00000 0 -17499688.402 5744101.276 17663386.540 10 0 60979 7200.00000 0 -15891647.009 4110012.659 19542214.951 10 0 60979 8100.00000 0 -14276207.256 2201943.122 21042084.548 10 0 60979 9000.00000 0 -12711787.877 51610.743 22134015.978 10 0 60979 9900.00000 0 -11251121.408 -2298321.164 22796933.055 10 0 60979 10800.00000 0 -9939122.917 -4795773.224 23018060.726 10 0 60979 11700.00000 0 -8811105.021 -7381176.126 22793164.635 10 0 60979 12600.00000 0 -7891412.318 -9989714.862 22126628.440 10 0 60979 13500.00000 0 -7192530.845 -12553799.334 21031367.793 10 0 60979 14400.00000 0 -6714708.575 -15005660.365 19528582.667 10 0 60979 15300.00000 0 -6446101.922 -17279964.829 17647352.450 10 0 60979 16200.00000 0 -6363441.572 -19316342.765 15424080.914 10 0 60979 17100.00000 0 -6433189.469 -21061722.625 12901800.844 10 0 60979 18000.00000 0 -6613138.452 -22472378.348 10129350.696 10 0 60979 18900.00000 0 -6854387.512 -23515603.538 7160438.138 10 0 60979 19800.00000 0 -7103609.815 -24170943.082 4052607.594 10 0 60979 20700.00000 0 -7305518.077 -24430930.610 866131.062 10 0 60979 21600.00000 0 -7405423.312 -24301300.612 -2337156.809 10 0 60979 22500.00000 0 -7351778.617 -23800665.795 -5495057.067 10 0 60979 23400.00000 0 -7098599.942 -22959672.674 -8546214.813 10 0 60979 24300.00000 0 -6607660.578 -21819670.324 -11431313.892 10 0 60979 25200.00000 0 -5850365.372 -20430947.732 -14094234.242 10 0 60979 26100.00000 0 -4809223.936 -18850613.581 -16483148.826 10 0 60979 27000.00000 0 -3478858.910 -17140207.353 -18551538.268 10 0 60979 27900.00000 0 -1866504.824 -15363142.118 -20259102.934 10 0 60979 28800.00000 0 8025.405 -13582086.521 -21572554.203 10 0 60979 29700.00000 0 2112906.839 -11856396.028 -22466269.127 10 0 60979 30600.00000 0 4405379.824 -10239701.400 -22922795.427 10 0 60979 31500.00000 0 6833294.606 -8777755.694 -22933196.658 10 0 60979 32400.00000 0 9337059.924 -7506630.149 -22497230.581 10 0 60979 33300.00000 0 11851915.090 -6451334.491 -21623356.988 10 0 60979 34200.00000 0 14310431.246 -5624919.279 -20328574.610 10 0 60979 35100.00000 0 16645137.652 -5028097.459 -18638090.041 10 0 60979 36000.00000 0 18791163.452 -4649400.280 -16584824.999 10 0 60979 36900.00000 0 20688784.387 -4465860.045 -14208771.477 10 0 60979 37800.00000 0 22285767.886 -4444189.774 -11556207.498 10 0 60979 38700.00000 0 23539418.303 -4542408.673 -8678789.022 10 0 60979 39600.00000 0 24418236.700 -4711843.353 -5632536.257 10 0 60979 40500.00000 0 24903125.881 -4899418.701 -2476734.807 10 0 60979 41400.00000 0 24988090.709 -5050140.099 727226.130 10 0 60979 42300.00000 0 24680405.169 -5109660.591 3917054.932 10 0 60979 43200.00000 0 24000240.278 -5026823.232 7030773.899 10 0 60979 44100.00000 0 22979769.781 -4756070.147 10007926.367 10 0 60979 45000.00000 0 21661792.522 -4259615.821 12790750.646 10 0 60979 45900.00000 0 20097930.624 -3509292.423 15325297.796 10 0 60979 46800.00000 0 18346480.058 -2487989.167 17562471.798 10 0 60979 47700.00000 0 16470004.427 -1190625.010 19458972.451 10 0 60979 48600.00000 0 14532772.916 375386.198 20978123.657 10 0 60979 49500.00000 0 12598149.330 2190197.819 22090572.178 10 0 60979 50400.00000 0 10726040.587 4222117.446 22774844.551 10 0 60979 51300.00000 0 8970510.051 6428694.935 23017752.658 10 0 60979 52200.00000 0 7377653.786 8758266.920 22814641.146 10 0 60979 53100.00000 0 5983826.747 11151894.621 22169472.726 10 0 60979 54000.00000 0 4814291.193 13545615.700 21094750.140 10 0 60979 54900.00000 0 3882342.226 15872918.046 19611276.319 10 0 60979 55800.00000 0 3188945.684 18067334.168 17747757.050 10 0 60979 56700.00000 0 2722902.549 20065049.735 15540253.097 10 0 60979 57600.00000 0 2461532.334 21807418.991 13031491.431 10 0 60979 58500.00000 0 2371846.515 23243283.145 10270047.826 10 0 60979 59400.00000 0 2412162.602 24330995.653 7309415.520 10 0 60979 60300.00000 0 2534091.076 25040070.015 4206977.003 10 0 60979 61200.00000 0 2684811.549 25352381.011 1022898.067 10 0 60979 62100.00000 0 2809542.195 25262868.625 -2181034.935 10 0 60979 63000.00000 0 2854097.968 24779714.483 -5342612.367 10 0 60979 63900.00000 0 2767429.099 23923982.615 -8400409.748 10 0 60979 64800.00000 0 2504031.807 22728738.805 -11294983.669 10 0 60979 65700.00000 0 2026128.275 21237684.747 -13970031.515 10 0 60979 66600.00000 0 1305522.398 19503363.753 -16373491.853 10 0 60979 67500.00000 0 325051.364 17585012.862 -18458563.585 10 0 60979 68400.00000 0 -920429.969 15546151.194 -20184623.459 10 0 60979 69300.00000 0 -2423575.249 13452005.558 -21518023.614 10 0 60979 70200.00000 0 -4164605.161 11366881.214 -22432753.239 10 0 60979 71100.00000 0 -6111897.682 9351587.909 -22910951.102 10 0 60979 72000.00000 0 -8223086.898 7461029.098 -22943258.700 10 0 60979 72900.00000 0 -10446625.713 5742055.149 -22529006.873 10 0 60979 73800.00000 0 -12723748.129 4231670.310 -21676231.995 10 0 60979 74700.00000 0 -14990749.723 2955668.166 -20401521.201 10 0 60979 75600.00000 0 -17181491.361 1927752.229 -18729689.427 10 0 60979 76500.00000 0 -19230021.605 1149177.723 -16693294.422 10 0 60979 77400.00000 0 -21073207.943 608928.607 -14331999.128 10 0 60979 78300.00000 0 -22653266.482 284421.078 -11691793.961 10 0 60979 79200.00000 0 -23920083.852 142702.480 -8824094.427 10 0 60979 80100.00000 0 -24833233.747 142093.450 -5784732.159 10 0 60979 81000.00000 0 -25363603.427 234202.265 -2632859.745 10 0 60979 81900.00000 0 -25494562.124 366224.620 570208.552 10 0 60979 82800.00000 0 -25222622.676 483429.982 3762196.623 10 0 60979 83700.00000 0 -24557569.380 531727.947 6881082.718 10 0 60979 84600.00000 0 -23522047.613 460204.923 9866307.619 10 0 60979 85500.00000 0 -22150633.575 223523.005 12659950.759 10 0 60980 0.00000 0 -20488424.424 -215920.757 15207851.067 10 0 60980 900.00000 0 -18589207.955 -886166.401 17460652.302 10 0 60980 1800.00000 0 -16513291.447 -1804270.839 19374749.746 10 0 60980 2700.00000 0 -14325077.865 -2975355.885 20913125.402 10 0 60980 3600.00000 0 -12090492.678 -4392163.975 22046053.145 10 0 60980 4500.00000 0 -9874367.245 -6035140.465 22751662.828 10 0 60980 5400.00000 0 -7737886.922 -7873039.416 23016353.438 10 0 60980 6300.00000 0 -5736208.773 -9864028.163 22835048.412 10 0 60980 7200.00000 0 -3916346.443 -11957245.499 22211288.937 10 0 60980 8100.00000 0 -2315408.508 -14094749.699 21157163.939 10 0 60980 9000.00000 0 -959261.946 -16213776.674 19693078.113 10 0 60980 9900.00000 0 138325.072 -18249215.608 17847362.181 10 0 60980 10800.00000 0 976026.596 -20136200.428 15655732.184 10 0 60980 11700.00000 0 1564775.114 -21812710.359 13160607.345 10 0 60980 12600.00000 0 1927058.927 -23222072.074 10410298.609 10 0 60980 13500.00000 0 2095730.470 -24315259.597 7458082.485 10 0 60980 14400.00000 0 2112375.818 -25052896.076 4361177.086 10 0 60980 15300.00000 0 2025314.003 -25406873.446 1179639.473 10 0 60980 16200.00000 0 1887310.517 -25361521.650 -2024794.888 10 0 60980 17100.00000 0 1753101.597 -24914277.546 -5189908.308 10 0 60980 18000.00000 0 1676834.223 -24075824.466 -8254209.370 10 0 60980 18900.00000 0 1709530.571 -22869695.485 -11158130.062 10 0 60980 19800.00000 0 1896684.952 -21331356.005 -13845187.814 10 0 60980 20700.00000 0 2276095.933 -19506803.223 -16263089.317 10 0 60980 21600.00000 0 2876026.581 -17450740.434 -18364754.075 10 0 60980 22500.00000 0 3713772.019 -15224402.118 -20109237.289 10 0 60980 23400.00000 0 4794696.416 -12893120.514 -21462533.582 10 0 60980 24300.00000 0 6111781.650 -10523735.301 -22398245.565 10 0 60980 25200.00000 0 7645708.378 -8181954.561 -22898103.884 10 0 60980 26100.00000 0 9365467.629 -5929777.320 -22952328.317 10 0 60980 27000.00000 0 11229478.685 -3823085.258 -22559822.647 10 0 60980 27900.00000 0 13187167.464 -1909504.038 -21728199.244 10 0 60980 28800.00000 0 15180940.092 -226623.384 -20473632.646 10 0 60980 29700.00000 0 17148469.466 1199350.189 -18820544.743 10 0 60980 30600.00000 0 19025199.204 2354452.325 -16801127.553 10 0 60980 31500.00000 0 20746959.940 3237296.458 -14454712.834 10 0 60980 32400.00000 0 22252587.974 3858873.271 -11827000.908 10 0 60980 33300.00000 0 23486436.019 4241823.967 -8969163.993 10 0 60980 34200.00000 0 24400670.210 4419219.579 -5936842.031 10 0 60980 35100.00000 0 24957256.549 4432899.633 -2789051.257 10 0 60980 36000.00000 0 25129553.176 4331442.125 412972.446 10 0 60980 36900.00000 0 24903441.587 4167852.338 3606971.922 10 0 60980 37800.00000 0 24277949.625 3997069.855 6730884.685 10 0 60980 38700.00000 0 23265340.638 3873400.484 9724052.032 10 0 60980 39600.00000 0 21890665.832 3847982.770 12528397.273 10 0 60980 40500.00000 0 20190799.461 3966396.769 15089550.018 10 0 60980 41400.00000 0 18212998.089 4266516.427 17357894.855 10 0 60980 42300.00000 0 16013044.870 4776696.176 19289524.613 10 0 60980 43200.00000 0 13653056.754 5514367.974 20847080.568 10 0 60980 44100.00000 0 11199046.056 6485107.591 22000464.502 10 0 60980 45000.00000 0 8718337.584 7682209.176 22727409.987 10 0 60980 45900.00000 0 6276947.914 9086785.958 23013903.146 10 0 60980 46800.00000 0 3937034.494 10668393.182 22854445.821 10 0 60980 47700.00000 0 1754519.068 12386147.801 22252156.899 10 0 60980 48600.00000 0 -223017.560 14190299.099 21218710.289 10 0 60980 49500.00000 0 -1958083.718 16024185.836 19774110.867 10 0 60980 50400.00000 0 -3424596.892 17826499.602 17946312.332 10 0 60980 51300.00000 0 -4608722.122 19533761.234 15770683.744 10 0 60980 52200.00000 0 -5509194.965 21082908.252 13289334.060 10 0 60980 53100.00000 0 -6137116.398 22413886.182 10550306.700 10 0 60980 54000.00000 0 -6515228.825 23472136.166 7606658.607 10 0 60980 54900.00000 0 -6676703.889 24210875.027 4515440.614 10 0 60980 55800.00000 0 -6663493.176 24593072.154 1336598.099 10 0 60980 56700.00000 0 -6524311.352 24593039.783 -1868187.297 10 0 60980 57600.00000 0 -6312336.866 24197569.078 -5036692.701 10 0 60980 58500.00000 0 -6082727.516 23406563.192 -8107362.515 10 0 60980 59400.00000 0 -5890056.237 22233139.460 -11020506.681 10 0 60980 60300.00000 0 -5785776.117 20703195.109 -13719465.003 10 0 60980 61200.00000 0 -5815822.652 18854453.451 -16151714.326 10 0 60980 62100.00000 0 -6018455.629 16735029.438 -18269896.486 10 0 60980 63000.00000 0 -6422433.058 14401573.727 -20032746.542 10 0 60980 63900.00000 0 -7045595.602 11917072.225 -21405902.686 10 0 60980 64800.00000 0 -7893922.671 9348392.611 -22362581.714 10 0 60980 65700.00000 0 -8961101.401 6763679.976 -22884106.562 10 0 60980 66600.00000 0 -10228628.085 4229710.104 -22960275.340 10 0 60980 67500.00000 0 -11666439.033 1809310.676 -22589564.430 10 0 60980 68400.00000 0 -13234045.463 -441042.202 -21779161.421 10 0 60980 69300.00000 0 -14882125.550 -2473352.101 -20544827.023 10 0 60980 70200.00000 0 -16554507.340 -4249866.543 -18910588.411 10 0 60980 71100.00000 0 -18190459.501 -5744404.374 -16908269.800 10 0 60980 72000.00000 0 -19727193.673 -6943191.530 -14576869.349 10 0 60980 72900.00000 0 -21102472.973 -7845171.332 -11961794.619 10 0 60980 73800.00000 0 -22257216.579 -8461777.698 -9113971.709 10 0 60980 74700.00000 0 -23137990.300 -8816182.425 -6088845.957 10 0 60980 75600.00000 0 -23699277.812 -8942050.068 -2945294.313 10 0 60980 76500.00000 0 -23905436.570 -8881854.798 255528.625 10 0 60980 77400.00000 0 -23732255.820 -8684832.186 3451387.505 10 0 60980 78300.00000 0 -23168051.151 -8404654.193 6580181.873 10 0 60980 79200.00000 0 -22214249.794 -8096927.174 9581156.200 10 0 60980 80100.00000 0 -20885442.506 -7816619.853 12396080.182 10 0 60980 81000.00000 0 -19208900.442 -7615530.785 14970376.192 10 0 60980 81900.00000 0 -17223577.851 -7539902.682 17254172.153 10 0 60980 82800.00000 0 -14978642.870 -7628284.309 19203259.894 10 0 60980 83700.00000 0 -12531598.066 -7909729.861 20779941.289 10 0 60980 84600.00000 0 -9946069.111 -8402411.169 21953746.917 10 0 60980 85500.00000 0 -7289353.291 -9112700.650 22702014.535 10 0 60981 0.00000 0 -4629829.222 -10034763.070 23010317.424 10 0 60981 900.00000 0 -2034332.777 -11150673.625 22872735.542 10 0 60981 1800.00000 0 434389.754 -12431056.334 22291964.715 10 0 60981 2700.00000 0 2720052.009 -13836218.166 21279262.839 10 0 60981 3600.00000 0 4774921.228 -15317731.158 19854233.687 10 0 60981 4500.00000 0 6561551.403 -16820397.878 18044452.420 10 0 60981 5400.00000 0 8054085.150 -18284519.209 15884939.354 10 0 60981 6300.00000 0 9239071.432 -19648370.803 13417491.188 10 0 60981 7200.00000 0 10115765.968 -20850785.597 10689881.582 10 0 60981 8100.00000 0 10695902.532 -21833735.022 7754945.459 10 0 60981 9000.00000 0 11002945.157 -22544801.124 4669563.721 10 0 60981 9900.00000 0 11070852.843 -22939435.859 1493567.273 10 0 60981 10800.00000 0 10942408.868 -22982912.278 -1711418.941 10 0 60981 11700.00000 0 10667185.116 -22651884.779 -4883169.765 10 0 60981 12600.00000 0 10299227.440 -21935491.727 -7960068.280 10 0 60981 13500.00000 0 9894560.007 -20835952.652 -10882305.164 10 0 60981 14400.00000 0 9508614.502 -19368633.470 -13593045.242 10 0 60981 15300.00000 0 9193693.411 -17561575.413 -16039537.979 10 0 60981 16200.00000 0 8996575.394 -15454506.003 -18174149.769 10 0 60981 17100.00000 0 8956364.829 -13097372.210 -19955297.442 10 0 60981 18000.00000 0 9102677.424 -10548456.111 -21348264.293 10 0 60981 18900.00000 0 9454239.576 -7872150.986 -22325882.404 10 0 60981 19800.00000 0 10017961.736 -5136490.042 -22869067.630 10 0 60981 20700.00000 0 10788525.915 -2410530.490 -22967196.554 10 0 60981 21600.00000 0 11748505.800 238298.324 -22618317.812 10 0 60981 22500.00000 0 12869015.275 2746772.408 -21829193.427 10 0 60981 23400.00000 0 14110858.801 5058269.045 -20615169.086 10 0 60981 24300.00000 0 15426135.704 7124881.521 -18999875.674 10 0 60981 25200.00000 0 16760231.113 8909164.906 -17014767.687 10 0 60981 26100.00000 0 18054109.671 10385440.564 -14698507.447 10 0 60981 27000.00000 0 19246815.193 11540605.766 -12096207.204 10 0 60981 27900.00000 0 20278070.481 12374415.689 -9258544.122 10 0 60981 28800.00000 0 21090867.138 12899227.399 -6240765.878 10 0 60981 29700.00000 0 21633935.566 13139218.333 -3101606.920 10 0 60981 30600.00000 0 21863990.424 13129114.019 97862.731 10 0 60981 31500.00000 0 21747656.391 12912480.599 3295432.788 10 0 60981 32400.00000 0 21262992.831 12539656.078 6428967.953 10 0 60981 33300.00000 0 20400553.043 12065409.324 9437618.768 10 0 60981 34200.00000 0 19163933.699 11546427.077 12263003.917 10 0 60981 35100.00000 0 17569791.662 11038736.104 14850340.796 10 0 60981 36000.00000 0 15647327.817 10595169.882 17149502.559 10 0 60981 36900.00000 0 13437259.896 10262986.819 19115981.585 10 0 60981 37800.00000 0 10990327.384 10081740.140 20711741.545 10 0 60981 38700.00000 0 8365390.814 10081488.583 21905942.679 10 0 60981 39600.00000 0 5627204.242 10281422.478 22675527.447 10 0 60981 40500.00000 0 2843952.779 10688962.197 23005656.479 10 0 60981 41400.00000 0 84656.287 11299366.284 22889987.523 10 0 60981 42300.00000 0 -2583454.375 12095865.384 22330792.845 10 0 60981 43200.00000 0 -5097481.420 13050316.387 21338913.302 10 0 60981 44100.00000 0 -7401220.724 14124349.809 19933550.123 10 0 60981 45000.00000 0 -9447242.679 15270963.047 18141898.089 10 0 60981 45900.00000 0 -11198608.480 16436493.710 15998626.571 10 0 60981 46800.00000 0 -12630151.822 17562891.433 13545217.516 10 0 60981 47700.00000 0 -13729273.663 18590193.877 10829172.125 10 0 60981 48600.00000 0 -14496217.659 19459103.896 7903100.462 10 0 60981 49500.00000 0 -14943815.267 20113560.180 4823710.588 10 0 60981 50400.00000 0 -15096711.411 20503193.477 1650716.011 10 0 60981 51300.00000 0 -14990103.379 20585564.810 -1554317.926 10 0 60981 52200.00000 0 -14668046.009 20328090.826 -4729166.635 10 0 60981 53100.00000 0 -14181394.611 19709574.116 -7812154.629 10 0 60981 54000.00000 0 -13585472.520 18721272.754 -10743355.938 10 0 60981 54900.00000 0 -12937561.937 17367462.404 -13465762.825 10 0 60981 55800.00000 0 -12294324.459 15665465.692 -15926399.544 10 0 60981 56700.00000 0 -11709260.730 13645145.900 -18077358.926 10 0 60981 57600.00000 0 -11230317.188 11347884.574 -19876741.122 10 0 60981 58500.00000 0 -10897741.683 8825084.478 -21289475.741 10 0 60981 59400.00000 0 -10742279.302 6136259.249 -22288011.007 10 0 60981 60300.00000 0 -10783785.313 3346788.594 -22852856.181 10 0 60981 61200.00000 0 -11030314.533 525431.967 -22972966.427 10 0 60981 62100.00000 0 -11477726.219 -2258296.149 -22645962.349 10 0 60981 63000.00000 0 -12109821.791 -4936780.373 -21878179.692 10 0 60981 63900.00000 0 -12899010.033 -7446877.616 -20684547.986 10 0 60981 64800.00000 0 -13807472.051 -9732302.386 -19088300.275 10 0 60981 65700.00000 0 -14788776.995 -11745725.049 -17120519.388 10 0 60981 66600.00000 0 -15789880.285 -13450495.900 -14819529.538 10 0 60981 67500.00000 0 -16753419.703 -14821923.657 -12230145.137 10 0 60981 68400.00000 0 -17620211.953 -15848055.814 -9402791.699 10 0 60981 69300.00000 0 -18331843.598 -16529929.298 -6392516.437 10 0 60981 70200.00000 0 -18833246.228 -16881282.418 -3257908.454 10 0 60981 71100.00000 0 -19075146.362 -16927741.903 -59950.353 10 0 60981 72000.00000 0 -19016285.978 -16705521.078 3139175.443 10 0 60981 72900.00000 0 -18625319.442 -16259685.942 6277301.541 10 0 60981 73800.00000 0 -17882306.506 -15642064.000 9293487.223 10 0 60981 74700.00000 0 -16779738.361 -14908885.637 12129202.706 10 0 60981 75600.00000 0 -15323053.634 -14118258.713 14729462.798 10 0 60981 76500.00000 0 -13530622.783 -13327583.631 17043888.047 10 0 60981 77400.00000 0 -11433201.709 -12591018.137 19027673.253 10 0 60981 78300.00000 0 -9072877.516 -11957098.426 20642445.418 10 0 60981 79200.00000 0 -6501550.267 -11466616.096 21856995.597 10 0 60981 80100.00000 0 -3779013.633 -11150839.355 22647871.708 10 0 60981 81000.00000 0 -970713.524 -11030152.212 22999822.082 10 0 60981 81900.00000 0 1854723.261 -11113167.808 22906082.309 10 0 60981 82800.00000 0 4628089.164 -11396352.298 22368500.679 10 0 60981 83700.00000 0 7282218.523 -11864174.571 21397500.345 10 0 60981 84600.00000 0 9754525.731 -12489775.384 20011879.037 10 0 60981 85500.00000 0 11989355.274 -13236128.116 18238449.917 10 0 60982 0.00000 0 13940047.533 -14057642.909 16111530.093 10 0 60982 900.00000 0 15570636.838 -14902148.133 13672284.556 10 0 60982 1800.00000 0 16857109.642 -15713165.701 10967940.072 10 0 60982 2700.00000 0 17788174.590 -16432386.895 8050879.376 10 0 60982 3600.00000 0 18365510.122 -17002244.078 4977634.913 10 0 60982 4500.00000 0 18603480.595 -17368470.763 1807799.758 10 0 60982 5400.00000 0 18528332.672 -17482542.051 -1397123.554 10 0 60982 6300.00000 0 18176905.700 -17303892.052 -4574914.284 10 0 60982 7200.00000 0 17594910.269 -16801813.912 -7663841.639 10 0 60982 8100.00000 0 16834847.429 -15956961.061 -10603866.133 10 0 60982 9000.00000 0 15953656.364 -14762384.844 -13337810.407 10 0 60982 9900.00000 0 15010189.936 -13224063.100 -15812476.185 10 0 60982 10800.00000 0 14062624.943 -11360895.594 -17979685.110 10 0 60982 11700.00000 0 13165916.751 -9204164.636 -19797222.678 10 0 60982 12600.00000 0 12369406.215 -6796481.815 -21229666.439 10 0 60982 13500.00000 0 11714680.330 -4190263.368 -22249081.945 10 0 60982 14400.00000 0 11233777.350 -1445796.636 -22835572.596 10 0 60982 15300.00000 0 10947812.527 1371022.710 -22977672.380 10 0 60982 16200.00000 0 10866082.821 4191189.076 -22672573.638 10 0 60982 17100.00000 0 10985688.615 6945217.422 -21926185.151 10 0 60982 18000.00000 0 11291688.586 9565796.540 -20753019.170 10 0 60982 18900.00000 0 11757781.236 11990354.837 -19175909.377 10 0 60982 19800.00000 0 12347484.221 14163431.880 -17225565.052 10 0 60982 20700.00000 0 13015761.377 16038756.970 -14939970.064 10 0 60982 21600.00000 0 13711028.271 17580948.355 -12363638.433 10 0 60982 22500.00000 0 14377450.875 18766762.600 -9546741.190 10 0 60982 23400.00000 0 14957439.400 19585842.653 -6544121.996 10 0 60982 24300.00000 0 15394230.987 20040934.381 -3414221.346 10 0 60982 25200.00000 0 15634451.145 20147563.922 -217931.065 10 0 60982 26100.00000 0 15630544.819 19933191.036 2982597.638 10 0 60982 27000.00000 0 15342973.627 19435875.868 6125168.512 10 0 60982 27900.00000 0 14742085.966 18702517.014 9148752.602 10 0 60982 28800.00000 0 13809580.746 17786736.736 11994674.406 10 0 60982 29700.00000 0 12539502.948 16746503.754 14607748.554 10 0 60982 30600.00000 0 10938729.072 15641594.664 16937345.045 10 0 60982 31500.00000 0 9026922.133 14531001.332 18938362.808 10 0 60982 32400.00000 0 6835958.041 13470393.290 20572093.528 10 0 60982 33300.00000 0 4408847.145 12509741.278 21806960.085 10 0 60982 34200.00000 0 1798195.509 11691200.882 22619116.517 10 0 60982 35100.00000 0 -935730.700 11047343.903 22992899.154 10 0 60982 36000.00000 0 -3727258.302 10599810.399 22921121.337 10 0 60982 36900.00000 0 -6507785.388 10358436.715 22405206.888 10 0 60982 37800.00000 0 -9208383.514 10320895.053 21455160.323 10 0 60982 38700.00000 0 -11762417.552 10472859.006 20089374.483 10 0 60982 39600.00000 0 -14108076.149 10788687.837 18334279.093 10 0 60982 40500.00000 0 -16190709.347 11232600.811 16223836.368 10 0 60982 41400.00000 0 -17964877.594 11760292.709 13798892.544 10 0 60982 42300.00000 0 -19396027.950 12320923.162 11106396.791 10 0 60982 43200.00000 0 -20461728.394 12859396.814 8198501.536 10 0 60982 44100.00000 0 -21152409.158 13318838.872 5131560.559 10 0 60982 45000.00000 0 -21471580.213 13643162.077 1965043.454 10 0 60982 45900.00000 0 -21435515.758 13779616.915 -1239613.049 10 0 60982 46800.00000 0 -21072418.767 13681217.104 -4420194.965 10 0 60982 47700.00000 0 -20421100.461 13308937.272 -7514918.983 10 0 60982 48600.00000 0 -19529230.075 12633588.940 -10463634.744 10 0 60982 49500.00000 0 -18451228.489 11637294.211 -13208997.723 10 0 60982 50400.00000 0 -17245894.461 10314493.339 -15697589.336 10 0 60982 51300.00000 0 -15973863.595 8672441.848 -17880961.957 10 0 60982 52200.00000 0 -14695007.344 6731174.373 -19716588.022 10 0 60982 53100.00000 0 -13465881.904 4522934.817 -21168694.233 10 0 60982 54000.00000 0 -12337334.793 2091094.941 -22208964.291 10 0 60982 54900.00000 0 -11352370.166 -511394.958 -22817096.145 10 0 60982 55800.00000 0 -10544363.044 -3223959.816 -22981202.624 10 0 60982 56700.00000 0 -9935697.769 -5980677.526 -22698047.419 10 0 60982 57600.00000 0 -9536888.078 -8712786.380 -21973111.562 10 0 60982 58500.00000 0 -9346215.788 -11351318.168 -20820488.867 10 0 60982 59400.00000 0 -9349903.068 -13829747.480 -19262612.141 10 0 60982 60300.00000 0 -9522810.662 -16086546.903 -17329815.271 10 0 60982 61200.00000 0 -9829632.045 -18067541.596 -15059739.675 10 0 60982 62100.00000 0 -10226532.365 -19727965.042 -12496596.671 10 0 60982 63000.00000 0 -10663162.059 -21034130.355 -9690300.348 10 0 60982 63900.00000 0 -11084959.015 -21964647.622 -6695488.295 10 0 60982 64800.00000 0 -11435640.827 -22511137.061 -3570449.847 10 0 60982 65700.00000 0 -11659780.613 -22678409.121 -375983.520 10 0 60982 66600.00000 0 -11705356.379 -22484105.262 2825793.207 10 0 60982 67500.00000 0 -11526165.199 -21957816.067 5972657.709 10 0 60982 68400.00000 0 -11083999.408 -21139715.388 9003495.247 10 0 60982 69300.00000 0 -10350492.405 -20078769.585 11859486.995 10 0 60982 70200.00000 0 -9308555.862 -18830598.604 14485249.717 10 0 60982 71100.00000 0 -7953347.671 -17455079.914 16829905.044 10 0 60982 72000.00000 0 -6292729.839 -16013796.703 18848058.019 10 0 60982 72900.00000 0 -4347197.056 -14567437.635 20500666.750 10 0 60982 73800.00000 0 -2149278.677 -13173256.967 21755787.395 10 0 60982 74700.00000 0 257561.243 -11882700.692 22589181.241 10 0 60982 75600.00000 0 2820480.701 -10739297.020 22984773.411 10 0 60982 76500.00000 0 5479209.442 -9776898.101 22934955.454 10 0 60982 77400.00000 0 8168311.765 -9018345.154 22440726.861 10 0 60982 78300.00000 0 10819669.953 -8474611.471 21511673.320 10 0 60982 79200.00000 0 13365086.851 -8144458.045 20165782.303 10 0 60982 80100.00000 0 15738901.165 -8014615.409 18429099.297 10 0 60982 81000.00000 0 17880508.465 -8060483.620 16335230.712 10 0 60982 81900.00000 0 19736684.429 -8247320.896 13924702.181 10 0 60982 82800.00000 0 21263614.731 -8531871.187 11244183.620 10 0 60982 83700.00000 0 22428547.718 -8864362.553 8345594.929 10 0 60982 84600.00000 0 23211001.296 -9190792.655 5285108.618 10 0 60982 85500.00000 0 23603473.629 -9455405.313 2122067.862 99